#timestamp,LO_Frequency,Hit,StdDev 
1505678415.7,286046989.5,N
1505678435.6,286046987.4,N
1505678455.4,286046985.3,N
1505678475.2,286046985.4,N
1505678495.0,286046986.4,N
1505678496.0,286046986.4,N
1505678515.8,286046988.3,N
1505678535.6,286046982.2,N
1505678555.4,286046980.7,N
1505678575.3,286046980.7,N
1505678595.1,286046979.5,N
1505678615.8,286046980.2,N
1505678635.7,286046976.2,Y
1505678655.5,286046986.3,P
1505678675.3,286046985.8,P
1505678695.2,286046985.6,P
1505678715.9,286046986.6,Y
1505678735.7,286047002.3,P
1505678755.6,286047005.5,N
1505678775.4,286047005.7,N
1505678795.2,286047007.6,N
1505678815.1,286047005.7,N
1505678816.0,286047005.7,N
1505678835.8,286047003.5,N
1505678855.6,286047004.2,N
1505678875.5,286047003.2,N
1505678895.3,286047002.8,N
1505678915.1,286046999.8,N
1505678935.9,286047002.1,N
1505678955.7,286046999.8,N
1505678975.5,286047000.4,N
1505678995.3,286047001.2,N
1505679015.2,286047002.4,N
1505679035.0,286046998.5,N
1505679035.9,286046998.5,N
1505679055.7,286046999.1,N
1505679075.6,286046997.7,N
1505679095.4,286046996.3,N
1505679115.2,286046995.2,N
1505679135.1,286046996.5,N
1505679136.0,286046996.5,N
1505679155.8,286046997.2,N
1505679175.6,286046996.7,N
1505679195.5,286046997.5,N
1505679215.3,286046997.5,N
1505679235.1,286046993.3,N
1505679255.9,286046997.1,N
1505679275.7,286046998.7,N
1505679295.5,286046998.5,N
1505679315.3,286046998.1,N
1505679335.2,286046999.1,N
1505679355.0,286046999.1,N
1505679355.9,286046999.1,N
1505679375.7,286047003.8,N
1505679395.6,286047005.8,N
1505679415.4,286047003.2,N
1505679435.2,286047002.0,N
1505679455.1,286046998.4,N
1505679456.0,286046998.4,N
1505679475.8,286046997.2,N
1505679495.6,286046996.2,N
1505679515.5,286046991.0,Y
1505679535.3,286046996.2,P
1505679555.1,286046996.0,P
1505679575.9,286047001.1,N
1505679595.7,286047003.7,N
1505679615.5,286047006.4,N
1505679635.4,286047008.0,N
1505679655.2,286047007.7,N
1505679675.0,286047011.9,N
1505679675.9,286047011.9,N
1505679695.8,286047012.4,N
1505679715.6,286047014.0,N
1505679735.4,286047013.4,N
1505679755.2,286047017.9,N
1505679775.1,286047021.7,Y
1505679776.0,286047021.7,P
1505679795.8,286047016.8,N
1505679815.6,286047015.2,N
1505679835.5,286047014.8,N
1505679855.3,286047012.5,N
1505679875.1,286047014.7,Y
1505679895.9,286047001.2,P
1505679915.7,286046999.5,N
1505679935.5,286046998.3,N
1505679955.4,286047000.4,N
1505679975.2,286047001.7,N
1505679995.0,286047003.8,N
1505679995.9,286047003.8,N
1505680015.8,286047004.3,N
1505680035.6,286047007.4,N
1505680055.4,286047003.3,N
1505680075.3,286047007.3,N
1505680095.1,286047009.4,N
1505680096.0,286047009.4,N
1505680115.8,286047009.8,N
1505680135.7,286047007.8,N
1505680155.5,286047006.4,N
1505680175.3,286047005.2,N
1505680195.2,286047007.4,N
1505680215.9,286047006.5,N
1505680235.7,286047007.5,N
1505680255.5,286047008.0,N
1505680275.4,286047012.5,Y
1505680295.2,286047010.1,P
1505680315.0,286047004.6,N
1505680316.0,286047004.6,N
1505680335.8,286047000.3,N
1505680355.6,286046999.6,N
1505680375.4,286046993.4,N
1505680395.3,286046994.4,N
1505680415.1,286046990.2,N
1505680435.8,286046989.6,N
1505680455.7,286046988.3,N
1505680475.5,286046989.4,N
1505680495.3,286046990.0,N
1505680515.2,286046987.4,N
1505680535.9,286046986.9,N
1505680555.7,286046986.1,N
1505680575.6,286046986.8,N
1505680595.4,286046986.3,N
1505680615.2,286046985.5,N
1505680635.0,286046986.7,N
1505680636.0,286046986.7,N
1505680655.8,286046984.3,N
1505680675.6,286046983.5,N
1505680695.4,286046980.5,N
1505680715.3,286046977.7,N
1505680735.1,286046980.4,N
1505680755.8,286046978.3,N
1505680775.7,286046976.1,N
1505680795.5,286046975.9,N
1505680815.3,286046976.4,N
1505680835.2,286046980.3,N
1505680855.9,286046979.4,N
1505680875.7,286046980.4,N
1505680895.6,286046981.8,N
1505680915.4,286046980.0,Y
1505680935.2,286046996.0,P
1505680955.1,286046996.8,N
1505680956.0,286046996.8,N
1505680975.8,286046994.5,N
1505680995.6,286046991.0,N
1505681015.5,286046988.8,N
1505681035.3,286046989.3,N
1505681055.1,286046986.0,Y
1505681075.9,286046996.2,P
1505681095.7,286046999.3,N
1505681115.5,286046994.9,N
1505681135.3,286046993.9,N
1505681155.2,286046996.5,N
1505681175.0,286046999.1,N
1505681175.9,286046999.1,N
1505681195.7,286046998.6,N
1505681215.6,286046998.3,N
1505681235.4,286046996.9,N
1505681255.2,286046994.9,N
1505681275.1,286046997.0,N
1505681276.0,286046997.0,N
1505681295.8,286046998.1,N
1505681315.6,286046996.9,N
1505681335.5,286046997.5,N
1505681355.3,286046996.4,N
1505681375.1,286046997.4,N
1505681395.9,286046997.4,N
1505681415.7,286046999.3,N
1505681435.5,286046997.0,N
1505681455.3,286046999.4,N
1505681475.2,286046999.5,N
1505681495.0,286046997.7,N
1505681495.9,286046997.7,N
1505681515.8,286046990.4,Y
1505681535.6,286046993.5,P
1505681555.4,286046999.8,N
1505681575.2,286047003.0,N
1505681595.1,286047010.2,N
1505681596.0,286047010.2,N
1505681615.8,286047011.5,N
1505681635.6,286047012.2,N
1505681655.5,286047010.1,N
1505681675.3,286047013.9,N
1505681695.1,286047013.2,N
1505681715.9,286047014.5,N
1505681735.7,286047017.0,N
1505681755.5,286047017.8,N
1505681775.4,286047021.7,N
1505681795.2,286047021.6,N
1505681815.0,286047022.0,N
1505681815.9,286047022.0,N
1505681835.8,286047023.2,N
1505681855.6,286047028.1,Y
1505681875.4,286047011.0,P
1505681895.3,286047010.9,P
1505681915.1,286047016.4,P
1505681916.0,286047016.4,Y
1505681935.8,286047006.4,P
1505681955.7,286047006.2,N
1505681975.5,286047005.6,N
1505681995.3,286047008.5,N
